User: anonymous   Login
Location: Morgantown
(40.9734°N, 80.6323°W)
Time: 15:33:33
(UTC+00:00)
Language:

DOVE 4 - Orbit

View from above orbital plane
View from above orbital plane
View from above satellite
View from above satellite

Ground track
Ground track

The orbit data is extracted from the following two-line orbital elements,

1 39430U 13066Q   21268.06809312  .00000211  00000-0  46740-4 0  9992
2 39430  97.8099 185.4094 0150641 160.6190 200.0826 14.59675474417578
Epoch (UTC): 25 September 2021 01:38:03
Eccentricity: 0.0150641
inclination: 97.8099°
perigee height: 587 km
apogee height: 801 km
right ascension of ascending node: 185.4094°
argument of perigee: 160.6190°
revolutions per day: 14.59675474
mean anomaly at epoch: 200.0826°
orbit number at epoch: 41757

The dashed part of the orbit path shows where the satellite is in the earth's shadow,  

DLR